User: anonymous   Login
Location: Unspecified
(0.0000°N, 0.0000°E)
Time: 09:19:00
(UTC+00:00)
Language:

COSMOS 2451 - Orbit

View from above orbital plane
View from above orbital plane
View from above satellite
View from above satellite

Ground track
Ground track

The orbit data is extracted from the following two-line orbital elements,

1 35498U 09036A   17268.91078289 +.00000031 +00000-0 +15519-3 0  9993
2 35498 082.4849 269.3086 0005890 302.7485 057.3032 12.40816174372535
Epoch (UTC): 25 September 2017 21:51:31
Eccentricity: 0.0005890
inclination: 82.4849°
perigee height: 1498 km
apogee height: 1508 km
right ascension of ascending node: 269.3086°
argument of perigee: 302.7485°
revolutions per day: 12.40816174
mean anomaly at epoch: 57.3032°
orbit number at epoch: 37253

The dashed part of the orbit path shows where the satellite is in the earth's shadow,  

DLR